When you browse on this site, cookies collect data to enhance your experience and personalize the content and advertising you see.
Visit our Privacy Policy to learn more. By continuing to use the site, you agree to this use of cookies and data.
  • In Hungary
  • List of Countries
  • For 7 days
  • Water Temperature
  • Satellite Maps
  • Weather Map
  • News
  • Weather Widgets
  • user-avatar
    Login

    Hourly Weather Kos

    Today, 21 November, Wednesday

    Time Temperature Precipitation Wind Pressure Humidity
    00:00 +17°C° 0 mm 7 mps 765 mmHg 86%
    01:00 +17°C° 0 mm 6 mps 765 mmHg 86%
    02:00 +17°C° 0 mm 6 mps 765 mmHg 85%
    03:00 +17°C° 0.2 mm 6 mps 764 mmHg 86%
    04:00 +17°C° 0.2 mm 6 mps 764 mmHg 88%
    05:00 +17°C° 0.2 mm 7 mps 764 mmHg 89%
    06:00 +17°C° 0.2 mm 7 mps 764 mmHg 88%
    07:00 +17°C° 0.2 mm 7 mps 763 mmHg 87%
    08:00 +17°C° 0.2 mm 7 mps 763 mmHg 85%
    09:00 +18°C° 0.3 mm 7 mps 763 mmHg 77%
    10:00 +21°C° 0.3 mm 7 mps 763 mmHg 69%
    11:00 +22°C° 0.3 mm 7 mps 763 mmHg 61%
    12:00 +22°C° 0.3 mm 6 mps 762 mmHg 61%
    13:00 +22°C° 0.3 mm 6 mps 762 mmHg 62%
    14:00 +22°C° 0.3 mm 6 mps 761 mmHg 63%
    15:00 +21°C° 0.2 mm 5 mps 761 mmHg 67%
    16:00 +20°C° 0.2 mm 5 mps 761 mmHg 72%
    17:00 +19°C° 0.2 mm 5 mps 761 mmHg 76%
    18:00 +17°C° 0.1 mm 5 mps 761 mmHg 80%
    19:00 +17°C° 0.1 mm 5 mps 762 mmHg 84%
    20:00 +16°C° 0.1 mm 6 mps 762 mmHg 87%
    21:00 +16°C° 0.5 mm 6 mps 762 mmHg 89%
    22:00 +16°C° 0.5 mm 6 mps 762 mmHg 91%
    23:00 +16°C° 0.5 mm 6 mps 762 mmHg 92%

    Tomorrow, 22 November, Thursday

    Time Temperature Precipitation Wind Pressure Humidity
    00:00 +15°C° 0.3 mm 5 mps 762 mmHg 93%
    01:00 +15°C° 0.3 mm 5 mps 762 mmHg 93%
    02:00 +15°C° 0.3 mm 4 mps 762 mmHg 94%
    03:00 +15°C° 0 mm 4 mps 762 mmHg 94%
    04:00 +14°C° 0 mm 3 mps 761 mmHg 94%
    05:00 +14°C° 0 mm 3 mps 761 mmHg 93%
    06:00 +14°C° 0.1 mm 3 mps 762 mmHg 92%
    07:00 +16°C° 0.1 mm 3 mps 762 mmHg 91%
    08:00 +16°C° 0.1 mm 2 mps 762 mmHg 89%
    09:00 +17°C° 0 mm 2 mps 762 mmHg 81%
    10:00 +19°C° 0 mm 3 mps 762 mmHg 72%
    11:00 +21°C° 0 mm 3 mps 762 mmHg 64%
    12:00 +21°C° 0 mm 4 mps 762 mmHg 62%
    13:00 +21°C° 0 mm 5 mps 762 mmHg 59%
    14:00 +21°C° 0 mm 7 mps 761 mmHg 57%
    15:00 +20°C° 0 mm 7 mps 762 mmHg 64%
    16:00 +18°C° 0 mm 8 mps 762 mmHg 71%
    17:00 +16°C° 0 mm 9 mps 762 mmHg 79%
    18:00 +16°C° 0 mm 9 mps 762 mmHg 82%
    19:00 +15°C° 0 mm 9 mps 763 mmHg 85%
    20:00 +13°C° 0 mm 9 mps 763 mmHg 88%
    21:00 +13°C° 0 mm 9 mps 763 mmHg 89%
    22:00 +12°C° 0 mm 9 mps 763 mmHg 90%
    23:00 +12°C° 0 mm 9 mps 763 mmHg 90%

    Day after tomorrow, 23 November, Friday

    Time Temperature Precipitation Wind Pressure Humidity
    00:00 +12°C° 0 mm 9 mps 763 mmHg 91%
    01:00 +11°C° 0 mm 9 mps 763 mmHg 92%
    02:00 +11°C° 0 mm 9 mps 763 mmHg 92%
    03:00 +11°C° 0 mm 9 mps 763 mmHg 93%
    04:00 +11°C° 0 mm 9 mps 763 mmHg 93%
    05:00 +11°C° 0 mm 9 mps 763 mmHg 94%
    06:00 +11°C° 0 mm 9 mps 763 mmHg 92%
    07:00 +11°C° 0 mm 9 mps 763 mmHg 90%
    08:00 +11°C° 0 mm 10 mps 764 mmHg 89%
    09:00 +12°C° 0 mm 10 mps 764 mmHg 81%
    10:00 +14°C° 0 mm 10 mps 764 mmHg 73%
    11:00 +17°C° 0 mm 10 mps 764 mmHg 65%
    12:00 +17°C° 0 mm 10 mps 764 mmHg 61%
    13:00 +18°C° 0 mm 10 mps 764 mmHg 58%
    14:00 +18°C° 0 mm 10 mps 763 mmHg 54%
    15:00 +17°C° 0 mm 10 mps 764 mmHg 58%
    16:00 +16°C° 0 mm 10 mps 764 mmHg 61%
    17:00 +14°C° 0 mm 10 mps 764 mmHg 65%
    18:00 +13°C° 0 mm 10 mps 764 mmHg 67%
    19:00 +12°C° 0 mm 10 mps 764 mmHg 70%
    20:00 +12°C° 0 mm 9 mps 765 mmHg 72%
    21:00 +11°C° 0 mm 9 mps 765 mmHg 73%
    22:00 +10°C° 0 mm 9 mps 765 mmHg 74%
    23:00 +10°C° 0 mm 8 mps 765 mmHg 76%

    24 November, Saturday

    Time Temperature Precipitation Wind Pressure Humidity
    00:00 +10°C° 0 mm 8 mps 765 mmHg 76%
    01:00 +9°C° 0 mm 8 mps 765 mmHg 77%
    02:00 +9°C° 0 mm 8 mps 765 mmHg 78%
    03:00 +9°C° 0 mm 8 mps 765 mmHg 79%
    04:00 +7°C° 0 mm 8 mps 765 mmHg 79%
    05:00 +7°C° 0 mm 8 mps 765 mmHg 80%
    06:00 +8°C° 0 mm 7 mps 765 mmHg 79%
    07:00 +8°C° 0 mm 7 mps 766 mmHg 78%
    08:00 +9°C° 0 mm 7 mps 766 mmHg 77%
    09:00 +11°C° 0 mm 7 mps 766 mmHg 69%
    10:00 +14°C° 0 mm 6 mps 766 mmHg 61%
    11:00 +16°C° 0 mm 6 mps 766 mmHg 54%
    12:00 +16°C° 0 mm 6 mps 766 mmHg 51%
    13:00 +17°C° 0 mm 6 mps 765 mmHg 49%
    14:00 +19°C° 0 mm 6 mps 765 mmHg 47%
    15:00 +17°C° 0 mm 6 mps 765 mmHg 51%
    16:00 +15°C° 0 mm 6 mps 765 mmHg 56%
    17:00 +14°C° 0 mm 6 mps 766 mmHg 61%
    18:00 +14°C° 0 mm 6 mps 766 mmHg 63%
    19:00 +13°C° 0 mm 6 mps 766 mmHg 66%
    20:00 +11°C° 0 mm 6 mps 767 mmHg 68%
    21:00 +12°C° 0 mm 5 mps 767 mmHg 69%
    22:00 +12°C° 0 mm 5 mps 767 mmHg 71%
    23:00 +11°C° 0 mm 4 mps 766 mmHg 72%

    25 November, Sunday

    Time Temperature Precipitation Wind Pressure Humidity
    00:00 +10°C° 0 mm 5 mps 766 mmHg 72%
    01:00 +10°C° 0 mm 5 mps 766 mmHg 73%
    02:00 +10°C° 0 mm 5 mps 766 mmHg 73%
    03:00 +10°C° 0 mm 5 mps 766 mmHg 74%
    04:00 +10°C° 0 mm 5 mps 766 mmHg 75%
    05:00 +9°C° 0 mm 5 mps 766 mmHg 76%
    06:00 +10°C° 0 mm 5 mps 766 mmHg 75%
    07:00 +10°C° 0 mm 5 mps 766 mmHg 75%
    08:00 +10°C° 0 mm 5 mps 766 mmHg 74%
    09:00 +13°C° 0 mm 5 mps 766 mmHg 68%
    10:00 +14°C° 0 mm 4 mps 766 mmHg 61%
    11:00 +17°C° 0 mm 4 mps 766 mmHg 55%
    12:00 +17°C° 0 mm 4 mps 766 mmHg 52%
    13:00 +18°C° 0 mm 4 mps 765 mmHg 50%
    14:00 +18°C° 0 mm 4 mps 765 mmHg 47%
    15:00 +17°C° 0 mm 4 mps 765 mmHg 51%
    16:00 +15°C° 0 mm 4 mps 765 mmHg 56%
    17:00 +13°C° 0 mm 4 mps 765 mmHg 61%
    18:00 +13°C° 0 mm 3 mps 765 mmHg 63%
    19:00 +12°C° 0 mm 3 mps 765 mmHg 66%
    20:00 +13°C° 0 mm 2 mps 765 mmHg 69%
    21:00 +13°C° 0 mm 2 mps 765 mmHg 69%
    22:00 +13°C° 0 mm 1 mps 765 mmHg 69%
    23:00 +13°C° 0 mm 1 mps 765 mmHg 69%

    26 November, Monday

    Time Temperature Precipitation Wind Pressure Humidity
    00:00 +13°C° 0 mm 1 mps 764 mmHg 69%
    01:00 +12°C° 0 mm 1 mps 764 mmHg 69%
    02:00 +12°C° 0 mm 1 mps 764 mmHg 69%
    03:00 +12°C° 0 mm 1 mps 764 mmHg 68%
    04:00 +12°C° 0 mm 2 mps 763 mmHg 67%
    05:00 +13°C° 0 mm 2 mps 763 mmHg 66%
    06:00 +12°C° 0 mm 3 mps 763 mmHg 66%
    07:00 +12°C° 0 mm 3 mps 763 mmHg 66%
    08:00 +12°C° 0 mm 4 mps 763 mmHg 67%
    09:00 +14°C° 0 mm 4 mps 763 mmHg 61%
    10:00 +16°C° 0 mm 5 mps 763 mmHg 55%
    11:00 +19°C° 0 mm 6 mps 763 mmHg 50%
    12:00 +19°C° 0 mm 6 mps 763 mmHg 53%
    13:00 +19°C° 0 mm 6 mps 762 mmHg 56%
    14:00 +19°C° 0 mm 6 mps 762 mmHg 59%
    15:00 +17°C° 0.1 mm 6 mps 762 mmHg 63%
    16:00 +16°C° 0.1 mm 6 mps 762 mmHg 67%
    17:00 +16°C° 0.1 mm 6 mps 762 mmHg 71%
    18:00 +15°C° 0.1 mm 6 mps 762 mmHg 74%
    19:00 +15°C° 0.1 mm 6 mps 762 mmHg 77%
    20:00 +15°C° 0.1 mm 5 mps 762 mmHg 80%
    21:00 +15°C° 0.4 mm 5 mps 762 mmHg 82%
    22:00 +15°C° 0.4 mm 6 mps 762 mmHg 85%
    23:00 +15°C° 0.4 mm 6 mps 762 mmHg 88%
    Show more